Voltar ao catálogo

ONEWEB-0346

AtivoComunicaçõesPO
NORAD 49212·PAYLOAD·🇬🇧 United Kingdom

Lançado Sep 14, 2021 de Baikonur Cosmodrome

Loading…

Próximas Passagens (próximas 24 horas)

TLE

AtualizadoSource: CelesTrak SupGP

Época: Sep 14, 2026, 23:59 UTC

1 49212C 21083AC  26257.99946019  .00001924  00000+0  48860-2 0  2571
2 49212  87.9171 317.6118 0002342 112.6186 325.1638 13.18686858    19

Acompanhe ONEWEB-0346 em tempo real com AllMySat

Download on the App Store